Location: Caltech
(34.1382°N, 118.1253°W)
Time: 22:55:29
(UTC-07:00)

Gbstr 26 Del rocket - Visible Passes

Search period start: 25 October 2014 00:00
Search period end: 03 November 2014 23:00
Orbit: 493 x 1278 km, 51.8° (Epoch: 25 October)

Date Brightness Start Highest point End Pass type
(mag) Time Alt. Az. Time Alt. Az. Time Alt. Az.
25 Oct 2.8 19:06:55 10° NW 19:10:49 87° NE 19:15:00 12° SE visible
26 Oct 3.2 19:04:24 10° NW 19:08:15 65° SW 19:12:42 10° SE visible
27 Oct 4.0 19:01:58 10° WNW 19:05:40 44° SW 19:09:55 10° SSE visible
28 Oct 4.8 18:59:38 10° WNW 19:03:04 30° SW 19:06:56 10° SSE visible
29 Oct 5.5 18:57:29 10° W 19:00:27 21° SW 19:03:44 10° S visible
30 Oct 5.9 18:55:39 10° W 18:57:49 14° SW 19:00:07 10° SSW visible
